Regional Weather Roundup
Issued by NWS

Home | Current Version | Previous Version | Graphics & Text | Print | Product List | Glossary On
Versions: 1 2 3 4 5 6 7 8 9 10 11 12 13 14 15 16 17 18 19 20 21 22 23 24 25 26 27 28 29 30 31 32 33 34 35 36 37 38 39 40 41 42 43 44 45 46 47 48 49 50
000
ASUS43 KLMK 280902
RWRKY
KENTUCKY REGIONAL WEATHER ROUNDUP
NATIONAL WEATHER SERVICE LOUISVILLE KY
500 AM EDT WED SEP 28 2016

NOTE "FAIR" INDICATES FEW OR NO CLOUDS BELOW 12,000 FEET
WITH NO SIGNIFICANT WEATHER AND/OR OBSTRUCTIONS TO VISIBILITY.

KYZ001>023-026-027-061>063-070>075-281000-
WESTERN AND SOUTH CENTRAL KENTUCKY

CITY           SKY/WX    TMP DP  RH WIND       PRES   REMARKS
PADUCAH        CLEAR     59  49  69 SW7       29.86F
HENDERSON      CLEAR     59  48  67 SW9       29.83S
OWENSBORO      NOT AVBL
HOPKINSVILLE   CLEAR     56  49  78 S3        29.90S
BOWLING GREEN  CLEAR     53  49  86 S3        29.91S
GLASGOW        NOT AVBL
$$

KYZ024-025-028>034-038-045-046-053-281000-
NORTH CENTRAL KENTUCKY

CITY           SKY/WX    TMP DP  RH WIND       PRES   REMARKS
LOUISVILLE/SDF MOCLDY    65  45  48 S10       29.84F
LOUISVILLE/LOU PTCLDY    60  47  61 S3        29.85F
FORT KNOX      CLEAR     54  48  82 S6        29.84F
$$

KYZ035>037-039>044-047>052-055>060-089>105-281000-
NORTHEAST KENTUCKY

CITY           SKY/WX    TMP DP  RH WIND       PRES   REMARKS
LEXINGTON      CLEAR     55  44  66 S8        29.89F
COVINGTON      PTCLDY    56  48  74 S9        29.83F
FRANKFORT      PTCLDY    56  45  66 S7        29.87F
$$

KYZ054-064>069-076>088-106>120-281000-
SOUTHEAST KENTUCKY

CITY           SKY/WX    TMP DP  RH WIND       PRES   REMARKS
JACKSON        CLEAR     51  46  83 CALM      29.93S
LONDON         CLEAR     47  43  86 CALM      29.94S
SOMERSET       CLEAR     46  46 100 CALM      29.95S
MIDDLESBORO    CLEAR     46  46  99 CALM      29.98R
MONTICELLO     SUNNY     46  45  96 W12       29.95F
$$





USA.gov is the U.S. government's official web portal to all federal, state and local government web resources and services.